Pagrindinis puslapis
METAR-TAF:

METAR-TAF

Oro uostai :

Los Alamos, Naujoji Meksika, Jungtinės Amerikos Valstijos

platuma: 35-53N, ilguma: 106-17W, Aukštis: 2179 m

Dabartinis oras

Ataskaita buvo paskelbta 18 minutes, ne 04:35 UTC
Ramus vėjas
Temperatūra 21°C
Drėgmė 43%
Slėgis 1026 hPa
Matomumas: 16.1 km
Giedras dangus

METAR: KLAM 160435Z AUTO 00000KT 10SM CLR 21/08 A3029 RMK AO2 LTG DSNT NE T02050076

Laikas: 22:53 (04:53 UTC)


TAF: trūkstamas

Orai ataskaitas ir orų prognozės (METAR, TAF).

turimą stotys yra geltonos ir raudonos taškus žemėlapyje.

Perkelti pele per norėdami pamatyti stoties vardą.

Tada spustelėkite, norėdami matyti oro stebėjimo ir prognozės.

Norėdami pakeisti žemėlapį: spustelėkite ant žalios mygtukų su juodo kryžiaus žemyn,; žalią mygtuką su brūkšneliu, jei norite nutolinti; arba žalių rodyklių gretimoms žemėlapius.


METAR-TAF: